Weather History for Kalispell, MT

Change the Weather History Date:

Saturday, March 16, 2013

  Actual Average Record
Temperature  
Mean Temperature 39 °F 36 °F  
Max Temperature 49 °F 46 °F 65 °F (1972)
Min Temperature 28 °F 25 °F -2 °F (1906)
Degree Days  
Heating Degree Days 26 30  
Month to date heating degree days 456 517  
Since 1 July heating degree days 5743 6369  
Cooling Degree Days 0 0  
Month to date cooling degree days 0 0  
Year to date cooling degree days 0 0  
Moisture  
Dew Point 33 °F    
Average Humidity 81    
Maximum Humidity 100    
Minimum Humidity 61    
Precipitation  
Precipitation 0.02 in 0.03 in 0.48 in (2003)
Month to date precipitation 0.46 0.56  
Year to date precipitation 1.51 2.86  
Snow  
Snow 0.00 in - - ()
Month to date snowfall 0.8  
Year to date snowfall 8.3  
Since 1 July snowfall 17.1  
Snow Depth 0.00 in    
Sea Level Pressure  
Sea Level Pressure 29.88 in    
Wind  
Wind Speed 6 mph (South)    
Max Wind Speed 22 mph    
Max Gust Speed 26 mph    
Visibility 10 miles    
Events Rain    
T = Trace of Precipitation, MM = Missing Value Source: NWS Daily Summary

Daily Weather History Graph

Daily Weather History Graph

Search for Another Location

Airport:

Trip Planner

Search our weather history database for the weather conditions in past years. The results will help you decide how hot, cold, wet, or windy it might be!

Date:

Astronomy

Mar. 16, 2013 Rise Set
Actual Time 7:47 AM MDT 7:44 PM MDT
Civil Twilight 7:16 AM MDT 8:15 PM MDT
Nautical Twilight 6:40 AM MDT 8:52 PM MDT
Astronomical Twilight 6:02 AM MDT 9:29 PM MDT
Moon 9:56 AM MDT 12:23 AM MDT
Length of Visible Light 12h 59m
Length of Day
11h 56m
Waxing Crescent, 23% of the Moon is Illuminated
Mar 16
Waxing Crescent
Mar 19
First Quarter
Mar 27
Full
Apr 2
Last Quarter
Apr 10
New

Hourly Weather History & Observations

Time (MDT) Temp. Windchill Dew Point Humidity Pressure Visibility Wind Dir Wind Speed Gust Speed Precip Events Conditions
12:55 AM 37.9 °F - 33.1 °F 83% 30.03 in 10.0 mi Calm Calm - N/A   Overcast
1:55 AM 35.1 °F - 32.0 °F 89% 30.02 in 10.0 mi Calm Calm - N/A   Overcast
2:55 AM 39.0 °F 34.8 °F 32.0 °F 76% 30.01 in 10.0 mi North 5.8 mph - N/A   Mostly Cloudy
3:55 AM 36.0 °F 33.3 °F 33.1 °F 89% 30.00 in 10.0 mi WNW 3.5 mph - N/A   Mostly Cloudy
4:55 AM 36.0 °F - 33.1 °F 89% 29.99 in 10.0 mi Calm Calm - N/A   Mostly Cloudy
5:55 AM 32.0 °F - 30.0 °F 92% 29.99 in 10.0 mi Calm Calm - N/A   Clear
6:55 AM 28.9 °F - 28.0 °F 96% 29.99 in 10.0 mi Calm Calm - N/A   Clear
7:55 AM 28.9 °F - 28.0 °F 96% 29.98 in 10.0 mi Calm Calm - N/A   Partly Cloudy
8:55 AM 32.0 °F - 30.9 °F 96% 29.98 in 10.0 mi Calm Calm - N/A   Overcast
9:02 AM 32.0 °F 28.7 °F 30.2 °F 93% 29.92 in 1.8 mi SW 3.5 mph - N/A   Overcast
9:12 AM 33.8 °F - 30.2 °F 87% 29.92 in 10.0 mi Calm Calm - N/A   Overcast
9:55 AM 37.0 °F - 34.0 °F 89% 29.97 in 10.0 mi Calm Calm - N/A   Mostly Cloudy
10:55 AM 41.0 °F 36.4 °F 36.0 °F 82% 29.95 in 10.0 mi South 6.9 mph - N/A   Overcast
11:55 AM 46.0 °F 41.0 °F 37.0 °F 71% 29.93 in 10.0 mi South 10.4 mph - N/A   Overcast
12:55 PM 46.9 °F - 35.1 °F 63% 29.89 in 10.0 mi SSW 15.0 mph - N/A   Scattered Clouds
1:55 PM 46.0 °F 40.2 °F 37.0 °F 71% 29.87 in 10.0 mi SE 12.7 mph - N/A   Mostly Cloudy
2:55 PM 48.0 °F - 35.1 °F 61% 29.81 in 10.0 mi South 16.1 mph 23.0 mph N/A   Mostly Cloudy
3:55 PM 46.0 °F 40.2 °F 34.0 °F 63% 29.81 in 10.0 mi SW 12.7 mph 24.2 mph 0.00 in Rain Light Rain
4:55 PM 45.0 °F 39.3 °F 33.1 °F 63% 29.78 in 10.0 mi SSE 11.5 mph - 0.00 in   Overcast
5:55 PM 43.0 °F 40.3 °F 36.0 °F 76% 29.77 in 10.0 mi SW 4.6 mph - 0.02 in   Mostly Cloudy
6:55 PM 42.1 °F 35.7 °F 34.0 °F 73% 29.76 in 10.0 mi SSW 11.5 mph - N/A   Overcast
7:55 PM 41.0 °F 35.2 °F 33.1 °F 73% 29.75 in 10.0 mi SSE 9.2 mph - N/A   Mostly Cloudy
8:55 PM 39.9 °F 34.5 °F 34.0 °F 79% 29.73 in 10.0 mi South 8.1 mph - N/A   Overcast
9:55 PM 39.0 °F 34.0 °F 35.1 °F 86% 29.70 in 10.0 mi SSE 6.9 mph - N/A   Overcast
10:55 PM 39.9 °F 35.8 °F 33.1 °F 77% 29.67 in 10.0 mi South 5.8 mph - N/A   Overcast
11:55 PM 39.9 °F 37.8 °F 33.1 °F 77% 29.64 in 10.0 mi SSW 3.5 mph - 0.00 in   Overcast